Location: Grasslands National Park East Block
(49.0708°N, 106.5295°W)
Time: 16:18:19
(UTC-06:00)

Explorer 11/Cluster Stage 4 - All Passes

Search period start: 22 September 2019 00:00
Search period end: 02 October 2019 00:00
Orbit: 467 x 1260 km, 28.8° (Epoch: 21 September)

Date Brightness Start Highest point End Pass type
(mag) Time Alt. Az. Time Alt. Az. Time Alt. Az.
25 Sep - 21:12:17 10° S 21:13:41 11° S 21:15:02 10° SSE visible
25 Sep - 22:59:56 10° SSW 23:01:10 11° S 23:02:22 10° S visible
26 Sep - 21:00:14 10° SSW 21:02:47 12° S 21:05:14 10° SSE visible
26 Sep - 22:48:26 10° SSW 22:50:18 11° S 22:52:05 10° S visible
27 Sep - 20:48:36 10° SSW 20:51:52 13° S 20:54:59 10° SSE visible
27 Sep - 22:37:11 10° SSW 22:39:25 12° SSW 22:41:33 10° S visible
28 Sep - 20:37:09 10° SSW 20:40:56 14° S 20:44:32 10° SSE visible
28 Sep - 22:26:01 10° SSW 22:28:31 12° SSW 22:30:52 10° S visible
29 Sep - 18:40:18 10° S 18:42:17 11° SSE 18:44:15 10° SSE daylight
29 Sep - 20:25:50 10° SSW 20:29:59 15° S 20:33:56 10° SSE visible
29 Sep - 22:14:59 10° SW 22:17:35 12° SSW 22:20:04 10° S visible
30 Sep - 18:28:22 10° S 18:31:18 12° SSE 18:34:11 10° SE daylight
30 Sep - 20:14:36 10° SSW 20:19:02 16° S 20:23:15 10° SSE visible
30 Sep - 22:04:03 10° SW 22:06:38 12° SSW 22:09:07 10° S visible
01 Oct - 18:16:48 10° S 18:20:18 13° SSE 18:23:46 10° SE daylight
01 Oct - 20:03:28 10° SW 20:08:02 16° S 20:12:28 10° SSE visible
01 Oct - 21:53:13 10° SW 21:55:40 12° SSW 21:58:03 10° S visible
